Regional Weather Roundup
Issued by NWS

Home | Current Version | Previous Version | Graphics & Text | Print | Product List | Glossary On
Versions: 1 2 3 4 5 6 7 8 9 10 11 12 13 14 15 16 17 18 19 20 21 22 23 24 25 26 27 28 29 30 31 32 33 34 35 36 37 38 39 40 41 42 43 44 45 46 47 48 49 50
000
ASUS43 KOAX 232202
RWRNE

WEATHER ROUNDUP FOR NEBRASKA
NATIONAL WEATHER SERVICE OMAHA NE
500 PM CDT SAT JUL 23 2016

NOTES: SATELLITE DATA IS BEING USED TO AUGMENT CLOUD COVER ABOVE
       12000 FEET.
       "FAIR" INDICATES FEW OR NO CLOUDS BELOW 12,000 FEET WITH NO
       SIGNIFICANT WEATHER AND/OR OBSTRUCTIONS TO VISIBILITY.

  * THESE STATIONS DO NOT REPORT WEATHER SUCH AS RAIN...SNOW OR FOG.

NEZ001>004-019>022-054>056-232300-
NEBRASKA PANHANDLE

CITY           SKY/WX    TMP DP  RH WIND       PRES   REMARKS
SCOTTSBLUFF    SUNNY     97  44  16 N7        29.94F HX  93
ALLIANCE       SUNNY     93  50  23 N9        29.95F HX  90
CHADRON        SUNNY     93  48  21 NE8       29.91F
KIMBALL        PTSUNNY   89  51  26 NE13      30.04R
SIDNEY         SUNNY     94  42  16 N14G21    29.99F HX  90
$$

NEZ057>060-069>072-079>082-232300-
SOUTHWEST NEBRASKA

CITY           SKY/WX    TMP DP  RH WIND       PRES   REMARKS
NORTH PLATTE   CLOUDY    95  72  47 NW8       29.86F HX 103
IMPERIAL       SUNNY     98  58  26 N9        29.90F HX  97
LEXINGTON      CLOUDY    91  71  51 SE3       29.85S HX  97
MCCOOK         CLOUDY    93  70  46 E9        29.85F HX  99
OGALLALA       SUNNY     98  50  19 N9        29.90F HX  95
$$

NEZ005>010-023>029-035>040-094-232300-
NORTH CENTRAL NEBRASKA

CITY           SKY/WX    TMP DP  RH WIND       PRES   REMARKS
VALENTINE      SUNNY     94  56  27 NW16      29.86R HX  92
AINSWORTH      SUNNY     93  62  36 N16G22    29.85R HX  93
BROKEN BOW     CLOUDY    89  74  60 SW7       29.84F HX  98
O`NEILL        CLOUDY    95  68  41 SW10      29.78S HX 100
ORD            CLOUDY    92  74  55 S8        29.80S HX 101
THEDFORD       MOSUNNY   94  59  30 N17       29.89S HX  94
$$

NEZ041-046>049-061>064-073>077-083>087-232300-
SOUTH CENTRAL NEBRASKA

CITY           SKY/WX    TMP DP  RH WIND       PRES   REMARKS
GRAND ISLAND   CLOUDY    95  68  41 SW10      29.81S HX  99
AURORA         CLOUDY    94  72  49 S8        29.80F HX 101
HASTINGS       SUNNY     98  71  41 W7        29.81F HX 106
HEBRON         CLOUDY    95  69  43 S14       29.80F HX 100
HOLDREGE       SUNNY     92  66  42 SW3       29.84F HX  95
KEARNEY *      CLOUDY    95  72  46 SW9       29.83F HX 103
$$

NEZ011>018-030>034-042>045-232300-
NORTHEAST NEBRASKA

CITY           SKY/WX    TMP DP  RH WIND       PRES   REMARKS
NORFOLK        CLOUDY    89  73  59 S8        29.78S HX  97
ALBION         CLOUDY    88  74  63 SW7       29.80R HX  97
BLAIR          SUNNY     91  74  58 S17G23    29.79F HX 100
FREMONT        SUNNY     91  73  54 S15       29.78F HX  99
TEKAMAH        SUNNY     92  75  57 S15       29.76F HX 103
WAYNE          CLOUDY    89  78  69 S8        29.77S HX 102
$$

NEZ050>053-065>068-078-088>093-232300-
SOUTHEAST NEBRASKA

CITY           SKY/WX    TMP DP  RH WIND       PRES   REMARKS
LINCOLN        PTSUNNY   93  75  55 S13       29.79F HX 104
OMAHA EPPLEY   MOSUNNY   93  74  53 S14       29.78F HX 103
BEATRICE       CLOUDY    89  76  65 SE8       29.81F HX 101
FALLS CITY     CLOUDY    88  75  65 S8        29.83F HX  97
NEBRASKA CITY  CLOUDY    89  78  69 S12       29.81F HX 103
PLATTSMOUTH    PTSUNNY   90  78  68 S9        29.81F HX 104
$$

NEZ044-045-051>053-067-232300-
OMAHA AREA

CITY           SKY/WX    TMP DP  RH WIND       PRES   REMARKS
OMAHA EPPLEY   MOSUNNY   93  74  53 S14       29.78F HX 103
BLAIR          SUNNY     91  74  58 S17G23    29.79F HX 100
FREMONT        SUNNY     91  73  54 S15       29.78F HX  99
MILLARD        SUNNY     92  76  60 S10G17    29.79S HX 105
OFFUTT AFB     CLOUDY    92  76  61 S10       29.79F HX 104
PLATTSMOUTH    PTSUNNY   90  78  68 S9        29.81F HX 104
WAHOO          FAIR      89  74  60 S10       29.79S HX  97
$$



USA.gov is the U.S. government's official web portal to all federal, state and local government web resources and services.